Weather History for KMEZ - December, 2012

Change the Weather History Date:

Monday, December 31, 2012

  Actual Average (KDEQ) Record (KDEQ)
Temperature  
Mean Temperature 39 °F 42 °F  
Max Temperature 41 °F 53 °F 82 °F (1951)
Min Temperature 37 °F 30 °F 6 °F (1983)
Degree Days  
Heating Degree Days 26 23  
Month to date heating degree days 682  
Since 1 July heating degree days 1209  
Cooling Degree Days 0 0  
Month to date cooling degree days 0  
Year to date cooling degree days 1941  
Moisture  
Dew Point 36 °F    
Average Humidity 89    
Maximum Humidity 100    
Minimum Humidity 57    
Precipitation  
Precipitation 0.03 in 0.19 in 1.98 in (1978)
Month to date precipitation 4.36  
Year to date precipitation 48.99  
Snow  
Snow 0.00 in - - ()
Month to date snowfall  
Since 1 July snowfall  
Snow Depth -    
Sea Level Pressure  
Sea Level Pressure 30.09 in    
Wind  
Wind Speed 1 mph (NE)    
Max Wind Speed 13 mph    
Max Gust Speed -    
Visibility 5 miles    
Events Fog , Rain    
T = Trace of Precipitation, MM = Missing Value Source: NWS Daily Summary

Daily Weather History Graph

Daily Weather History Graph

Search for Another Location

Airport or City:

Trip Planner

Search our weather history database for the weather conditions in past years. The results will help you decide how hot, cold, wet, or windy it might be!

Date:

Astronomy

Dec. 31, 2012 Rise Set
Actual Time 7:23 AM CST 5:16 PM CST
Civil Twilight 6:55 AM CST 5:44 PM CST
Nautical Twilight 6:24 AM CST 6:16 PM CST
Astronomical Twilight 5:53 AM CST 6:46 PM CST
Moon 8:38 PM CST (12/31) 9:13 AM CST (12/31)
Length of Visible Light 10h 49m
Length of Day
9h 53m
Waning Gibbous, 90% of the Moon is Illuminated
Dec 31
Waning Gibbous
Jan 4
Last Quarter
Jan 11
New
Jan 18
First Quarter
Jan 26
Full

Hourly Weather History & Observations

Time (CST) Temp. Windchill Dew Point Humidity Pressure Visibility Wind Dir Wind Speed Gust Speed Precip Events Conditions
12:15 AM 41.0 °F - 30.2 °F 65% 30.26 in 10.0 mi Calm Calm - N/A   Drizzle
12:35 AM 37.4 °F - 32.0 °F 81% 30.25 in 10.0 mi Calm Calm - N/A   Overcast
12:55 AM 39.2 °F - 30.2 °F 70% 30.24 in 10.0 mi Calm Calm - N/A   Overcast
1:15 AM 39.2 °F - 30.2 °F 70% 30.24 in 10.0 mi Calm Calm - N/A   Overcast
1:55 AM 41.0 °F - 28.4 °F 61% 30.24 in 10.0 mi Calm Calm - N/A   Overcast
2:15 AM 41.0 °F - 26.6 °F 57% 30.24 in 10.0 mi Calm Calm - N/A   Overcast
2:35 AM 41.0 °F - 28.4 °F 61% 30.24 in 10.0 mi Calm Calm - N/A   Overcast
2:55 AM 39.2 °F - 30.2 °F 70% 30.23 in 10.0 mi Calm Calm - N/A   Overcast
3:15 AM 41.0 °F - 28.4 °F 61% 30.23 in 10.0 mi Calm Calm - N/A   Scattered Clouds
3:35 AM 41.0 °F - 28.4 °F 61% 30.24 in 10.0 mi Calm Calm - N/A   Mostly Cloudy
3:55 AM 41.0 °F - 26.6 °F 57% 30.23 in 10.0 mi Calm Calm - N/A   Overcast
4:15 AM 41.0 °F - 26.6 °F 57% 30.23 in 10.0 mi Calm Calm - N/A   Overcast
4:35 AM 41.0 °F - 28.4 °F 61% 30.21 in 10.0 mi Calm Calm - N/A   Overcast
5:15 AM 41.0 °F - 30.2 °F 65% 30.21 in 10.0 mi Calm Calm - N/A   Overcast
5:55 AM 41.0 °F 39.0 °F 30.2 °F 65% 30.19 in 10.0 mi ESE 3.5 mph - N/A   Overcast
6:15 AM 41.0 °F - 28.4 °F 61% 30.19 in 10.0 mi Calm Calm - N/A Rain Light Rain
6:55 AM 39.2 °F 35.9 °F 32.0 °F 75% 30.15 in 10.0 mi ENE 4.6 mph - N/A   Drizzle
7:15 AM 39.2 °F 37.0 °F 32.0 °F 75% 30.14 in 10.0 mi East 3.5 mph - N/A Rain Light Rain
7:35 AM 37.4 °F 34.9 °F 32.0 °F 81% 30.14 in 10.0 mi ENE 3.5 mph - N/A   Overcast
8:15 AM 37.4 °F - 33.8 °F 87% 30.13 in 10.0 mi Calm Calm - N/A   Overcast
8:35 AM 37.4 °F - 33.8 °F 87% 30.14 in 7.0 mi Calm Calm - N/A   Drizzle
8:55 AM 37.4 °F 33.8 °F 33.8 °F 87% 30.15 in 4.0 mi WNW 4.6 mph - N/A Rain Rain
9:15 AM 37.4 °F - 35.6 °F 93% 30.17 in 3.0 mi Calm Calm - N/A Rain Rain
9:35 AM 37.4 °F - 35.6 °F 93% 30.15 in 2.0 mi Calm Calm - N/A Rain Light Rain
9:55 AM 37.4 °F 34.9 °F 37.4 °F 100% 30.13 in 4.0 mi East 3.5 mph - N/A Rain Light Rain
10:15 AM 37.4 °F 33.8 °F 37.4 °F 100% 30.13 in 5.0 mi ENE 4.6 mph - N/A Rain Light Rain
10:35 AM 37.4 °F - 37.4 °F 100% 30.11 in 3.0 mi Calm Calm - N/A Rain Light Rain
10:55 AM 37.4 °F 32.1 °F 37.4 °F 100% 30.09 in 2.5 mi East 6.9 mph - N/A Rain Light Rain
11:15 AM 37.4 °F 33.8 °F 37.4 °F 100% 30.09 in 3.0 mi North 4.6 mph - N/A Rain Light Rain
11:35 AM 37.4 °F - 37.4 °F 100% 30.08 in 2.5 mi Calm Calm - N/A Rain Rain
11:55 AM 37.4 °F - 37.4 °F 100% 30.07 in 2.5 mi Calm Calm - 0.02 in Rain Rain
12:15 PM 37.4 °F - 37.4 °F 100% 30.05 in 2.5 mi Calm Calm - N/A Rain Rain
12:55 PM 37.4 °F - 37.4 °F 100% 30.02 in 1.5 mi Calm Calm - N/A Rain Heavy Rain
1:15 PM 37.4 °F 34.9 °F 37.4 °F 100% 30.01 in 1.5 mi NW 3.5 mph - N/A Rain Rain
1:35 PM 37.4 °F - 37.4 °F 100% 30.00 in 1.0 mi Calm Calm - N/A Rain Rain
1:55 PM 37.4 °F - 37.4 °F 100% 29.99 in 1.0 mi Calm Calm - N/A Rain Light Rain
2:15 PM 39.2 °F - 39.2 °F 100% 29.99 in 0.8 mi Calm Calm - N/A Rain Rain
2:35 PM 41.0 °F 37.1 °F 41.0 °F 100% 29.99 in 1.5 mi WNW 5.8 mph - N/A Rain Rain
2:55 PM 41.0 °F 33.9 °F 41.0 °F 100% 30.01 in 1.5 mi West 12.7 mph - N/A Rain Heavy Rain
3:15 PM 41.0 °F 35.8 °F 41.0 °F 100% 30.04 in 1.5 mi West 8.1 mph - N/A   Heavy Drizzle
3:35 PM 41.0 °F - 41.0 °F 100% 30.02 in 1.5 mi Calm Calm - N/A   Heavy Drizzle
3:55 PM 41.0 °F - 41.0 °F 100% 30.02 in 2.5 mi Calm Calm - N/A   Drizzle
4:15 PM 41.0 °F - 41.0 °F 100% 30.01 in 2.0 mi Calm Calm - N/A   Drizzle
4:35 PM 41.0 °F - 41.0 °F 100% 30.01 in 5.0 mi Calm Calm - N/A   Overcast
5:15 PM 41.0 °F - 41.0 °F 100% 30.00 in 1.0 mi Calm Calm - 0.01 in   Overcast
5:35 PM 41.0 °F - 41.0 °F 100% 30.00 in 4.0 mi Calm Calm - 0.01 in   Overcast
5:55 PM 41.0 °F - 41.0 °F 100% 30.01 in 2.5 mi Calm Calm - 0.01 in   Overcast
6:15 PM 41.0 °F - 41.0 °F 100% 30.02 in 4.0 mi Calm Calm - N/A   Overcast
6:35 PM 41.0 °F - 41.0 °F 100% 30.01 in 5.0 mi Calm Calm - N/A   Overcast
6:55 PM 41.0 °F - 41.0 °F 100% 30.01 in 5.0 mi Calm Calm - N/A   Overcast
7:15 PM 41.0 °F - 41.0 °F 100% 30.01 in 5.0 mi Calm Calm - N/A   Overcast
7:35 PM 41.0 °F - 41.0 °F 100% 30.02 in 7.0 mi Calm Calm - N/A   Overcast
7:55 PM 41.0 °F - 41.0 °F 100% 30.01 in 1.2 mi Calm Calm - N/A   Overcast
8:15 PM 39.2 °F - 39.2 °F 100% 30.01 in 0.8 mi Calm Calm - N/A   Overcast
8:35 PM 39.2 °F - 39.2 °F 100% 30.01 in 1.0 mi Calm Calm - N/A   Overcast
8:55 PM 41.0 °F - 41.0 °F 100% 30.01 in 0.8 mi Calm Calm - N/A   Overcast
9:15 PM 41.0 °F - 41.0 °F 100% 30.02 in 0.8 mi Calm Calm - N/A   Overcast
9:35 PM 41.0 °F - 41.0 °F 100% 30.03 in 1.0 mi Calm Calm - N/A   Overcast
9:55 PM 41.0 °F - 41.0 °F 100% 30.01 in 1.2 mi Calm Calm - N/A   Overcast
10:15 PM 39.2 °F - 39.2 °F 100% 30.02 in 1.0 mi Calm Calm - N/A   Overcast
10:35 PM 41.0 °F - 41.0 °F 100% 30.03 in 1.0 mi Calm Calm - N/A   Overcast
10:55 PM 41.0 °F - 41.0 °F 100% 30.03 in 1.0 mi Calm Calm - N/A   Overcast
11:15 PM 39.2 °F - 39.2 °F 100% 30.04 in 0.5 mi Calm Calm - N/A Fog Fog
11:35 PM 39.2 °F - 39.2 °F 100% 30.04 in 0.8 mi Calm Calm - N/A   Overcast
11:55 PM 41.0 °F - 41.0 °F 100% 30.03 in 0.8 mi Calm Calm - N/A   Overcast